This demonstration page uses our WeatherBlox Daily Observations layout. Learn more.

Left ArrowRight Arrow

41.86663, -103.66717

Hourly Observations for June 6, 2021

Temp ( °F °C ) Dew Point ( °F °C ) Humidity (%) Winds ( mph kmh ) Pressure ( in mb ) Visibility ( mi km ) Precip ( " mm )
12:53 am 00:53 Clear 67 19.4 48 8.9 51 51 E 6 9 29.52 1000 10 16 N/A
1:53 am 01:53 Clear 66 18.9 50 10 56 56 ENE 7 11 29.52 1000 10 16 N/A
2:53 am 02:53 Clear 63 17.2 50 10 63 63 N 6 9 29.51 999 10 16 N/A
3:53 am 03:53 Clear 62 16.7 49 9.4 62 62 N N/A 29.51 999 10 16 N/A
4:53 am 04:53 Clear 59 15 49 9.4 69 69 N N/A 29.52 1000 10 16 N/A
5:53 am 05:53 Sunny 56 13.3 50 10 81 81 N N/A 29.55 1001 10 16 N/A
6:53 am 06:53 Sunny 66 18.9 51 10.6 59 59 N N/A 29.56 1001 10 16 N/A
7:53 am 07:53 Sunny 75 23.9 50 10 41 41 WNW 6 9 29.56 1001 10 16 N/A
8:53 am 08:53 Sunny 81 27.2 48 8.9 32 32 NW 10 17 29.57 1002 10 16 N/A
9:53 am 09:53 Sunny 86 30 48 8.9 27 27 NW 12 19 29.58 1002 10 16 N/A
10:53 am 10:53 Sunny 86 30 49 9.4 28 28 NNW 10 17 29.61 1003 10 16 N/A
11:53 am 11:53 Sunny 89 31.7 49 9.4 25 25 NNW 15 24 29.62 1003 10 16 N/A
12:53 pm 12:53 Sunny 89 31.7 54 12.2 30 30 NNE 20 31 29.63 1003 10 16 N/A
1:53 pm 13:53 Sunny 89 31.7 53 11.7 29 29 ENE 12 19 29.63 1003 10 16 N/A
2:53 pm 14:53 Sunny 88 31.1 54 12.2 31 31 ENE 16 26 29.62 1003 10 16 N/A
3:53 pm 15:53 Sunny 89 31.7 54 12.2 30 30 NE 15 24 29.62 1003 10 16 N/A
4:53 pm 16:53 Sunny 85 29.4 52 11.1 32 32 ENE 13 20 29.62 1003 10 16 N/A
5:53 pm 17:53 Sunny 84 28.9 53 11.7 34 34 E 18 30 29.64 1004 10 16 N/A
6:53 pm 18:53 Sunny 82 27.8 53 11.7 37 37 E 16 26 29.64 1004 10 16 N/A
7:53 pm 19:53 Sunny 79 26.1 52 11.1 39 39 E 9 15 29.65 1004 10 16 N/A
8:53 pm 20:53 Clear 75 23.9 55 12.8 50 50 SSE 3 6 29.68 1005 10 16 N/A
9:53 pm 21:53 Clear 71 21.7 53 11.7 53 53 E 8 13 29.67 1005 10 16 N/A
10:53 pm 22:53 Clear 72 22.2 54 12.2 53 53 SE 8 13 29.70 1006 10 16 N/A
11:53 pm 23:53 Clear 69 20.6 54 12.2 59 59 ESE 5 7 29.70 1006 10 16 N/A

Powered by AerisWeather